UAL2273 KSFO-KLAS

Flight info

Callsign UAL2273
Flight time N/A
Altitude 37000
Route WESLA5 NTELL Q174 FLCHR COKTL4
Aircraft B772/H-SDE2E3FGHIJ5LORVWXY/LB1D1

Departure

Time N/A
Airport San Francisco International Airport (KSFO)

Arrival

Time 2026-05-04 13:18
Airport Harry Reid International Airport (KLAS)
Time Latitude Longitude Altitude Speed Heading
2026-05-04 12:36 36.94005 -119.76041 33301 ft 571 kts 68°
2026-05-04 12:37 36.95601 -119.71486 33669 ft 572 kts 68°
2026-05-04 12:37 36.97177 -119.66920 34074 ft 572 kts 68°
2026-05-04 12:37 36.98720 -119.62346 34529 ft 569 kts 69°
2026-05-04 12:37 37.00223 -119.57795 34990 ft 565 kts 69°
2026-05-04 12:38 37.01709 -119.53232 34999 ft 568 kts 70°
2026-05-04 12:38 37.04654 -119.44101 34988 ft 563 kts 70°
2026-05-04 12:39 37.07583 -119.35007 34977 ft 563 kts 70°
2026-05-04 12:39 37.10515 -119.25908 34968 ft 564 kts 70°
2026-05-04 12:40 37.13445 -119.16791 34942 ft 564 kts 70°
2026-05-04 12:40 37.16367 -119.07669 34929 ft 564 kts 70°
2026-05-04 12:41 37.19283 -118.98538 34899 ft 564 kts 70°
2026-05-04 12:41 37.22186 -118.89414 34880 ft 563 kts 70°
2026-05-04 12:42 37.25079 -118.80293 34871 ft 562 kts 70°
2026-05-04 12:42 37.27488 -118.71002 34866 ft 558 kts 80°
2026-05-04 12:43 37.28642 -118.61432 34866 ft 552 kts 89°
2026-05-04 12:43 37.29292 -118.51840 34892 ft 551 kts 89°
2026-05-04 12:44 37.29951 -118.42319 34909 ft 550 kts 89°
2026-05-04 12:44 37.30668 -118.32755 34903 ft 549 kts 88°
2026-05-04 12:45 37.31383 -118.23211 34904 ft 549 kts 89°
2026-05-04 12:45 37.32082 -118.13665 34870 ft 548 kts 89°
2026-05-04 12:46 37.32771 -118.04127 34795 ft 548 kts 89°
2026-05-04 12:46 37.33453 -117.94584 34788 ft 548 kts 89°
2026-05-04 12:47 37.34127 -117.85064 34801 ft 547 kts 89°
2026-05-04 12:47 37.34793 -117.75531 34793 ft 548 kts 89°
2026-05-04 12:48 37.35454 -117.65989 34799 ft 548 kts 89°
2026-05-04 12:48 37.36105 -117.56444 34796 ft 548 kts 89°
2026-05-04 12:49 37.36748 -117.46904 34801 ft 547 kts 89°
2026-05-04 12:49 37.37385 -117.37377 34810 ft 547 kts 89°
2026-05-04 12:50 37.37019 -117.28045 34809 ft 527 kts 113°
2026-05-04 12:50 37.35686 -117.23788 34550 ft 520 kts 125°
2026-05-04 12:50 37.33745 -117.20043 34190 ft 503 kts 140°
2026-05-04 12:50 37.31380 -117.16887 33800 ft 496 kts 142°
2026-05-04 12:51 37.29008 -117.13739 33242 ft 494 kts 141°
2026-05-04 12:51 37.26689 -117.10575 32691 ft 490 kts 141°
2026-05-04 12:51 37.24410 -117.07413 32163 ft 486 kts 141°
2026-05-04 12:51 37.22161 -117.04271 31619 ft 483 kts 141°
2026-05-04 12:52 37.19927 -117.01149 31104 ft 479 kts 141°
2026-05-04 12:52 37.17686 -116.98032 30615 ft 484 kts 141°
2026-05-04 12:52 37.15421 -116.94890 30129 ft 488 kts 141°
2026-05-04 12:52 37.13147 -116.91731 29908 ft 489 kts 141°
2026-05-04 12:53 37.10858 -116.88557 29797 ft 490 kts 141°
2026-05-04 12:53 37.08577 -116.85393 29628 ft 491 kts 141°
2026-05-04 12:53 37.06296 -116.82195 29267 ft 495 kts 139°
2026-05-04 12:53 37.04216 -116.78687 28913 ft 507 kts 133°
2026-05-04 12:54 37.02308 -116.75009 28593 ft 499 kts 130°
2026-05-04 12:54 37.00499 -116.71341 28272 ft 492 kts 130°
2026-05-04 12:54 36.98756 -116.67750 27948 ft 488 kts 130°
2026-05-04 12:54 36.97005 -116.64129 27647 ft 485 kts 130°
2026-05-04 12:55 36.95267 -116.60523 27322 ft 483 kts 129°
2026-05-04 12:55 36.93561 -116.56965 26964 ft 471 kts 129°
2026-05-04 12:55 36.91868 -116.53442 26548 ft 476 kts 130°
2026-05-04 12:55 36.90146 -116.49876 26211 ft 484 kts 129°
2026-05-04 12:56 36.88411 -116.46296 26122 ft 478 kts 129°
2026-05-04 12:56 36.86709 -116.42759 26116 ft 474 kts 129°
2026-05-04 12:56 36.85013 -116.39228 26091 ft 475 kts 129°
2026-05-04 12:56 36.83304 -116.35689 26078 ft 477 kts 129°
2026-05-04 12:57 36.81589 -116.32146 26046 ft 477 kts 129°
2026-05-04 12:57 36.79870 -116.28597 26023 ft 478 kts 129°
2026-05-04 12:57 36.78150 -116.25048 25990 ft 478 kts 129°
2026-05-04 12:57 36.76429 -116.21500 25951 ft 478 kts 129°
2026-05-04 12:58 36.74712 -116.17951 25926 ft 478 kts 129°
2026-05-04 12:58 36.73003 -116.14401 25885 ft 477 kts 129°
2026-05-04 12:58 36.71299 -116.10860 25883 ft 476 kts 129°
2026-05-04 12:58 36.69597 -116.07326 25851 ft 475 kts 129°
2026-05-04 12:59 36.67897 -116.03794 25836 ft 475 kts 129°
2026-05-04 12:59 36.66201 -116.00273 25820 ft 474 kts 129°
2026-05-04 12:59 36.64506 -115.96750 25808 ft 474 kts 129°
2026-05-04 12:59 36.62810 -115.93228 25768 ft 474 kts 129°
2026-05-04 13:00 36.61125 -115.89708 25742 ft 475 kts 127°
2026-05-04 13:00 36.59706 -115.85952 25719 ft 485 kts 117°
2026-05-04 13:00 36.58719 -115.81900 25709 ft 492 kts 111°
2026-05-04 13:00 36.57949 -115.77742 25471 ft 491 kts 108°
2026-05-04 13:01 36.57261 -115.73615 25118 ft 484 kts 108°
2026-05-04 13:01 36.56596 -115.69532 24741 ft 479 kts 107°
2026-05-04 13:01 36.55940 -115.65483 24265 ft 476 kts 107°
2026-05-04 13:01 36.55282 -115.61460 23887 ft 473 kts 107°
2026-05-04 13:02 36.54616 -115.57467 23533 ft 470 kts 107°
2026-05-04 13:02 36.53946 -115.53503 23150 ft 464 kts 107°
2026-05-04 13:02 36.53296 -115.49670 22669 ft 443 kts 107°
2026-05-04 13:02 36.52679 -115.46003 22223 ft 423 kts 107°
2026-05-04 13:03 36.52093 -115.42492 21798 ft 407 kts 107°
2026-05-04 13:03 36.51450 -115.39142 21359 ft 390 kts 111°
2026-05-04 13:03 36.50685 -115.35981 20941 ft 375 kts 113°
2026-05-04 13:03 36.49909 -115.32946 20517 ft 363 kts 114°
2026-05-04 13:04 36.49147 -115.30008 20135 ft 351 kts 115°
2026-05-04 13:04 36.48300 -115.27230 19618 ft 338 kts 118°
2026-05-04 13:04 36.47394 -115.24582 18956 ft 328 kts 120°
2026-05-04 13:04 36.46495 -115.22017 18326 ft 320 kts 120°
2026-05-04 13:05 36.45611 -115.19524 17650 ft 310 kts 121°
2026-05-04 13:05 36.44685 -115.17148 16965 ft 302 kts 122°
2026-05-04 13:05 36.43745 -115.14854 16236 ft 294 kts 123°
2026-05-04 13:05 36.42814 -115.12621 15559 ft 288 kts 123°
2026-05-04 13:06 36.41901 -115.10458 15057 ft 275 kts 123°
2026-05-04 13:06 36.41054 -115.08442 14878 ft 254 kts 123°
2026-05-04 13:06 36.40305 -115.06500 14403 ft 248 kts 110°
2026-05-04 13:06 36.40229 -115.04382 13920 ft 249 kts 79°
2026-05-04 13:07 36.40969 -115.02463 13472 ft 245 kts 60°
2026-05-04 13:07 36.42024 -115.00821 12957 ft 243 kts 47°
2026-05-04 13:07 36.43414 -114.99665 12417 ft 242 kts 18°
2026-05-04 13:07 36.45064 -114.99531 11914 ft 241 kts 343°
2026-05-04 13:08 36.46520 -115.00474 11453 ft 234 kts 310°
2026-05-04 13:08 36.47320 -115.02141 10988 ft 222 kts 275°
2026-05-04 13:08 36.47246 -115.03973 10552 ft 208 kts 240°
2026-05-04 13:08 36.46445 -115.05394 10114 ft 201 kts 219°
2026-05-04 13:09 36.45287 -115.06297 9668 ft 197 kts 197°
2026-05-04 13:09 36.43967 -115.06735 9207 ft 197 kts 183°
2026-05-04 13:09 36.42612 -115.06628 8715 ft 195 kts 172°
2026-05-04 13:09 36.41277 -115.06343 8248 ft 193 kts 171°
2026-05-04 13:10 36.39963 -115.06048 7749 ft 191 kts 170°
2026-05-04 13:10 36.38674 -115.05748 7333 ft 192 kts 170°
2026-05-04 13:10 36.37334 -115.05439 6864 ft 195 kts 170°
2026-05-04 13:10 36.36024 -115.05145 6426 ft 193 kts 170°
2026-05-04 13:11 36.34714 -115.04854 5909 ft 191 kts 170°
2026-05-04 13:11 36.33402 -115.04569 5377 ft 192 kts 171°
2026-05-04 13:11 36.32082 -115.04292 4830 ft 192 kts 171°
2026-05-04 13:11 36.30759 -115.04016 4292 ft 193 kts 171°
2026-05-04 13:12 36.29447 -115.03733 3916 ft 189 kts 172°
2026-05-04 13:12 36.28185 -115.03816 3587 ft 180 kts 205°
2026-05-04 13:12 36.27100 -115.04627 3370 ft 185 kts 212°
2026-05-04 13:12 36.26012 -115.05484 3129 ft 186 kts 212°
2026-05-04 13:13 36.24927 -115.06325 3027 ft 181 kts 212°
2026-05-04 13:13 36.23880 -115.07137 2950 ft 175 kts 210°
2026-05-04 13:13 36.22817 -115.07824 2969 ft 172 kts 205°
2026-05-04 13:13 36.21725 -115.08404 3174 ft 169 kts 202°
2026-05-04 13:14 36.20694 -115.08955 3438 ft 153 kts 205°
2026-05-04 13:14 36.19782 -115.09637 3468 ft 154 kts 213°
2026-05-04 13:14 36.18880 -115.10366 3468 ft 155 kts 206°
2026-05-04 13:14 36.17962 -115.10918 3316 ft 137 kts 203°
2026-05-04 13:15 36.17392 -115.11220 3232 ft 135 kts 203°
2026-05-04 13:15 36.16502 -115.11702 3383 ft 139 kts 204°
2026-05-04 13:15 36.15600 -115.12230 3363 ft 148 kts 206°
2026-05-04 13:15 36.14687 -115.12789 3215 ft 145 kts 206°
2026-05-04 13:16 36.13776 -115.13343 3055 ft 146 kts 206°
2026-05-04 13:16 36.12897 -115.13854 2888 ft 134 kts 203°
2026-05-04 13:16 36.12081 -115.14307 2707 ft 121 kts 202°
2026-05-04 13:16 36.11334 -115.14725 2531 ft 118 kts 204°
2026-05-04 13:17 36.10635 -115.15266 2332 ft 121 kts 207°
2026-05-04 13:17 36.09853 -115.15708 2191 ft 127 kts 202°
2026-05-04 13:17 36.09103 -115.16138 2128 ft 108 kts 203°
2026-05-04 13:17 36.08519 -115.16469 2130 ft 71 kts 205°
2026-05-04 13:18 36.08136 -115.16686 2128 ft 33 kts 204°
2026-05-04 13:18 36.08015 -115.16723 2130 ft 13 kts 182°
2026-05-04 13:18 36.07963 -115.16721 2130 ft 0 kts 173°
2026-05-04 13:19 36.07925 -115.16712 2129 ft 11 kts 165°
2026-05-04 13:20 36.07838 -115.16641 2127 ft 20 kts 129°
2026-05-04 13:20 36.07802 -115.16466 2130 ft 21 kts 89°
2026-05-04 13:20 36.07803 -115.16290 2131 ft 20 kts 90°
2026-05-04 13:20 36.07802 -115.16117 2127 ft 20 kts 91°
2026-05-04 13:21 36.07802 -115.15944 2127 ft 20 kts 89°
2026-05-04 13:21 36.07803 -115.15771 2129 ft 20 kts 89°
2026-05-04 13:21 36.07804 -115.15598 2129 ft 20 kts 89°
2026-05-04 13:21 36.07804 -115.15425 2133 ft 20 kts 90°
2026-05-04 13:22 36.07803 -115.15252 2132 ft 20 kts 90°
2026-05-04 13:22 36.07803 -115.15079 2129 ft 20 kts 90°
2026-05-04 13:22 36.07792 -115.14907 2130 ft 20 kts 96°
2026-05-04 13:22 36.07790 -115.14887 2130 ft 0 kts 95°
2026-05-04 13:23 36.07790 -115.14882 2130 ft 2 kts 96°
2026-05-04 13:23 36.07781 -115.14777 2127 ft 18 kts 95°
2026-05-04 13:23 36.07772 -115.14621 2128 ft 18 kts 92°
2026-05-04 13:23 36.07764 -115.14464 2125 ft 18 kts 94°
2026-05-04 13:24 36.07755 -115.14306 2125 ft 18 kts 93°
2026-05-04 13:24 36.07775 -115.14171 2126 ft 15 kts 34°
2026-05-04 13:24 36.07825 -115.14075 2125 ft 15 kts 90°
2026-05-04 13:25 36.07944 -115.13878 2125 ft 15 kts 46°
2026-05-04 13:25 36.08007 -115.13778 2121 ft 15 kts 74°
2026-05-04 13:25 36.08013 -115.13690 2123 ft 2 kts 52°
2026-05-04 13:25 36.08028 -115.13677 2128 ft 3 kts 38°
2026-05-04 13:26 36.08044 -115.13658 2122 ft 0 kts 43°
2026-05-04 13:26 36.08045 -115.13657 2124 ft 0 kts 43°